(112656) Gines = 2002 PM86

Discovered at Pla D'Arguines on 2002-08-12 by R. Ferrando.
(112656) Gines = 2002 PM86

Gines Lopez (1933-2008) was a good friend and collaborator of the discoverer. Lopez made many improvements to the telescopes at the discoverer's observatory. [Ref: Minor Planet Circ. 86715]

Orbit

Orbit type: Main Belt

Note: WebGL enabled browser required.

epoch2024-03-31.0
epoch JD2460400.5
perihelion date2020-08-31.52385
perihelion JD2459093.02385
argument of perihelion (°)127.45776
ascending node (°)226.68840
inclination (°)5.53122
eccentricity0.0858784
perihelion distance (AU)2.4657038
Tisserand w.r.t. Jupiter3.4
ΔV w.r.t. Earth (km/sec)10.0
semimajor axis (AU)2.6973476
mean anomaly (°)290.89231
mean daily motion (°/day)0.22248380
aphelion distance (AU)2.929
period (years)4.43
P-vector [x]0.99209591
P-vector [y]-0.12168405
P-vector [z]0.03063817
Q-vector [x]0.10405165
Q-vector [y]0.93423356
Q-vector [z]0.34114647
absolute magnitude16.02
phase slope0.15
uncertainty0
referenceMPEC 2024-E123
observations used595
oppositions16
arc length (days)8058
first opposition used2001
last opposition used2023
residual rms (arc-secs)0.78
perturbers coarse indicatorM-v
perturbers precise indicator003Ek
first observation date used2001-05-01.0
last observation date used2023-05-24.0
computer nameMPCLINUX
JD of orbit computation2456789.317969
perihelion JD uncertainty (days)1.9575E-04
argument of perihelion uncertainty (°)7.6381E-05
ascending node uncertainty (°)6.3856E-05
inclination uncertainty (°)8.8744E-06
eccentricity uncertainty 7.1362E-08
perihelion distance uncertainty (AU)1.9280E-07
Minimum Orbit Intersection Distances (in AU)
for orbit epoch: 2460400.5, reference: E2024-GD4
Mercury2.0919
Venus1.74808
Earth1.46586
Mars1.07226
Jupiter2.42908
Saturn6.29809
Uranus15.5289
Neptune27.2721

Observations

616 total observations over interval: 2001 04 27.46405 – 2023 05 24.253182
These data are available for download (format description).

Date (UT) J2000 RA J2000 Dec Magn Location Ref
2001 04 27.46405 14 05 28.44 -14 33 14.7 18.6   644 – Palomar Mountain/NEAT MPS 106722
2001 04 27.46935 14 05 28.18 -14 33 12.8 18.5   644 – Palomar Mountain/NEAT MPS 106722
2001 04 27.47457 14 05 27.91 -14 33 10.6 19.2   644 – Palomar Mountain/NEAT MPS 106722
2001 05 01.37871 14 02 14.11 -14 08 50.5 21.1 V 691 – Steward Observatory, Kitt Peak-Spacewatch MPS 129984
2001 05 01.40101 14 02 12.99 -14 08 41.8 20.5 V 691 – Steward Observatory, Kitt Peak-Spacewatch MPS 129984
2001 05 01.42327 14 02 11.89 -14 08 32.8 20.5 V 691 – Steward Observatory, Kitt Peak-Spacewatch MPS 129984
2002 07 21.40580 21 49 58.17 -03 46 55.5 19.7   644 – Palomar Mountain/NEAT MPS 60238
2002 07 21.41771 21 49 57.76 -03 46 56.4 19.1   644 – Palomar Mountain/NEAT MPS 60238
2002 07 21.42809 21 49 57.40 -03 46 57.0 18.8   644 – Palomar Mountain/NEAT MPS 60238
2002 08 05.44398 21 39 50.49 -04 16 12.1 19.2   644 – Palomar Mountain/NEAT MPS 60238
2002 08 05.45455 21 39 49.96 -04 16 14.0 19.3   644 – Palomar Mountain/NEAT MPS 60238
2002 08 05.46493 21 39 49.47 -04 16 16.0 19.2   644 – Palomar Mountain/NEAT MPS 60238
2002 08 08.27093 21 37 36.06 -04 25 41.4 19.1 R 699 – Lowell Observatory-LONEOS MPS 60238
2002 08 08.28502 21 37 35.38 -04 25 44.6   699 – Lowell Observatory-LONEOS MPS 60238
2002 08 08.29908 21 37 34.67 -04 25 46.4   699 – Lowell Observatory-LONEOS MPS 60238
2002 08 08.31307 21 37 34.00 -04 25 50.7   699 – Lowell Observatory-LONEOS MPS 60238
2002 08 12.30431 21 34 18.16 -04 41 03.2 19.8   704 – Lincoln Laboratory ETS, New Mexico MPS 60238
2002 08 12.31916 21 34 17.42 -04 41 07.5 19.5   704 – Lincoln Laboratory ETS, New Mexico MPS 60238
2002 08 12.33339 21 34 16.68 -04 41 11.4 20.1   704 – Lincoln Laboratory ETS, New Mexico MPS 60238
2002 08 12.34766 21 34 15.92 -04 41 14.7 20.0   704 – Lincoln Laboratory ETS, New Mexico MPS 60238
2002 08 12.95067 21 33 46.18 -04 43 42.2 18.0 R 941 – Observatorio Pla D'Arguines MPS 60238
2002 08 12.95350 21 33 46.03 -04 43 43.2 18.0 R 941 – Observatorio Pla D'Arguines MPS 60238
2002 08 12.95635 21 33 45.90 -04 43 44.0 18.0 R 941 – Observatorio Pla D'Arguines MPS 60238
2002 08 12.96024 21 33 45.63 -04 43 44.8 18.0 R 941 – Observatorio Pla D'Arguines MPS 60238
2002 08 12.96313 21 33 45.55 -04 43 45.6 18.0 R 941 – Observatorio Pla D'Arguines MPS 60238
2002 08 12.96594 21 33 45.30 -04 43 45.9 18.0 R 941 – Observatorio Pla D'Arguines MPS 60238
2002 08 14.93936 21 32 07.40 -04 52 10.0 18.3 R 941 – Observatorio Pla D'Arguines MPS 60238
2002 08 14.95547 21 32 06.62 -04 52 13.1 18.3 R 941 – Observatorio Pla D'Arguines MPS 60238
2002 08 14.99809 21 32 04.25 -04 52 21.4 18.3 R 941 – Observatorio Pla D'Arguines MPS 60238
2002 08 15.23775 21 31 52.53 -04 53 25.9 19.1   644 – Palomar Mountain/NEAT MPS 60238
2002 08 15.31873 21 31 48.35 -04 53 46.6 18.7   644 – Palomar Mountain/NEAT MPS 60238
2002 08 15.38857 21 31 44.73 -04 54 05.5 18.7   644 – Palomar Mountain/NEAT MPS 60238
2002 08 16.36725 21 30 56.11 -04 58 26.5 19.2   644 – Palomar Mountain/NEAT MPS 60238
2002 08 16.39056 21 30 54.90 -04 58 32.9 19.2   644 – Palomar Mountain/NEAT MPS 60238
2002 08 16.41157 21 30 53.82 -04 58 38.6 19.1   644 – Palomar Mountain/NEAT MPS 60238
2002 08 28.91740 21 21 01.83 -05 59 58.9 18.5 R 941 – Observatorio Pla D'Arguines MPS 61373
2002 08 28.91992 21 21 01.74 -05 59 59.5 18.5 R 941 – Observatorio Pla D'Arguines MPS 61373
2002 08 28.92498 21 21 01.59 -06 00 00.0 18.5 R 941 – Observatorio Pla D'Arguines MPS 61373
2002 09 03.28109 21 17 22.30 -06 27 46.5 20.0   608 – Haleakala-AMOS MPS 61373
2002 09 03.29181 21 17 21.86 -06 27 50.6 20.8   608 – Haleakala-AMOS MPS 61373
2002 09 03.30277 21 17 21.36 -06 27 52.5 19.9   608 – Haleakala-AMOS MPS 61373
2002 09 05.12373 21 16 14.04 -06 37 19.8 19.4 R 699 – Lowell Observatory-LONEOS MPS 61373
2002 09 05.14124 21 16 13.34 -06 37 24.0   699 – Lowell Observatory-LONEOS MPS 61373
2002 09 05.15878 21 16 12.56 -06 37 29.9   699 – Lowell Observatory-LONEOS MPS 61373
2002 09 05.17616 21 16 12.00 -06 37 34.4   699 – Lowell Observatory-LONEOS MPS 61373
2002 09 08.38894 21 14 23.09 -06 53 58.4 20.5   608 – Haleakala-AMOS MPS 61373
2002 09 08.39986 21 14 22.69 -06 54 01.2 20.4   608 – Haleakala-AMOS MPS 61373
2002 09 08.41057 21 14 22.33 -06 54 04.4 20.5   608 – Haleakala-AMOS MPS 61373
2003 11 29.01120 06 05 55.92 +18 31 11.3 19.6 V 941 – Observatorio Pla D'Arguines MPS 93685
2003 11 29.01347 06 05 55.82 +18 31 10.6 19.6 V 941 – Observatorio Pla D'Arguines MPS 93685
2003 11 29.01461 06 05 55.77 +18 31 10.3 19.7 V 941 – Observatorio Pla D'Arguines MPS 93685
2003 11 29.01574 06 05 55.73 +18 31 10.0 19.6 V 941 – Observatorio Pla D'Arguines MPS 93685
2003 11 29.01687 06 05 55.68 +18 31 09.7 19.6 V 941 – Observatorio Pla D'Arguines MPS 93685
2003 11 29.01801 06 05 55.64 +18 31 09.5 19.6 V 941 – Observatorio Pla D'Arguines MPS 93685
2003 12 03.32144 06 02 23.30 +18 21 03.6 19.8   704 – Lincoln Laboratory ETS, New Mexico MPS 93685
2003 12 03.33434 06 02 22.67 +18 21 02.0 20.4   704 – Lincoln Laboratory ETS, New Mexico MPS 93685
2003 12 03.34938 06 02 21.87 +18 20 59.6 20.4   704 – Lincoln Laboratory ETS, New Mexico MPS 93685
2003 12 03.36289 06 02 21.08 +18 20 57.3 20.3   704 – Lincoln Laboratory ETS, New Mexico MPS 93685
2003 12 03.37569 06 02 20.48 +18 20 56.7 20.2   704 – Lincoln Laboratory ETS, New Mexico MPS 93685
2003 12 14.01345 05 52 26.44 +17 58 05.1 19.3 V 941 – Observatorio Pla D'Arguines MPS 93685
2003 12 14.01572 05 52 26.31 +17 58 05.0 19.3 V 941 – Observatorio Pla D'Arguines MPS 93685
2003 12 14.01685 05 52 26.24 +17 58 04.9 19.3 V 941 – Observatorio Pla D'Arguines MPS 93685
2003 12 14.01798 05 52 26.19 +17 58 04.9 19.4 V 941 – Observatorio Pla D'Arguines MPS 93685
2005 02 19.14282 12 01 18.40 -07 08 15.6 20.4 V 941 – Observatorio Pla D'Arguines MPS 126754
2005 02 19.14398 12 01 18.36 -07 08 15.4 20.4 V 941 – Observatorio Pla D'Arguines MPS 126754
2005 02 19.14514 12 01 18.33 -07 08 15.0 20.5 V 941 – Observatorio Pla D'Arguines MPS 126754
2005 02 19.14629 12 01 18.29 -07 08 14.8 20.4 V 941 – Observatorio Pla D'Arguines MPS 126754
2005 02 19.14745 12 01 18.26 -07 08 14.5 20.5 V 941 – Observatorio Pla D'Arguines MPS 126754
2005 03 08.28306 11 49 42.48 -05 54 56.1 20.1 V 691 – Steward Observatory, Kitt Peak-Spacewatch MPS 127891
2005 03 08.31125 11 49 41.13 -05 54 46.7 20.4 V 691 – Steward Observatory, Kitt Peak-Spacewatch MPS 127891
2005 03 08.33669 11 49 39.90 -05 54 38.3 20.2 V 691 – Steward Observatory, Kitt Peak-Spacewatch MPS 127891
2005 03 13.26259 11 45 45.12 -05 26 15.0 19.1   703 – Catalina Sky Survey MPS 129012
2005 03 13.26921 11 45 44.72 -05 26 14.4 19.5   703 – Catalina Sky Survey MPS 129012
2005 03 13.27573 11 45 44.51 -05 26 10.9 19.5   703 – Catalina Sky Survey MPS 129012
2005 03 13.28230 11 45 44.10 -05 26 08.9 19.4   703 – Catalina Sky Survey MPS 129012
2007 10 05.32692 02 38 27.44 +17 58 22.8   691 – Steward Observatory, Kitt Peak-Spacewatch MPS 218348
2007 10 05.34454 02 38 26.85 +17 58 18.4   691 – Steward Observatory, Kitt Peak-Spacewatch MPS 218348
2007 10 05.36217 02 38 26.22 +17 58 14.0   691 – Steward Observatory, Kitt Peak-Spacewatch MPS 218348
2007 10 09.27222 02 36 08.57 +17 40 23.1 19.6 V 691 – Steward Observatory, Kitt Peak-Spacewatch MPS 219914
2007 10 09.28985 02 36 07.87 +17 40 18.0 19.7 V 691 – Steward Observatory, Kitt Peak-Spacewatch MPS 219914
2007 10 09.30642 02 36 07.31 +17 40 13.7 19.9   704 – Lincoln Laboratory ETS, New Mexico MPS 219914
2007 10 09.30749 02 36 07.16 +17 40 13.0 19.7 V 691 – Steward Observatory, Kitt Peak-Spacewatch MPS 219914
2007 10 09.31750 02 36 06.85 +17 40 10.8 19.5   704 – Lincoln Laboratory ETS, New Mexico MPS 219914
2007 10 09.32858 02 36 06.36 +17 40 07.3 19.6   704 – Lincoln Laboratory ETS, New Mexico MPS 219914
2007 10 09.33963 02 36 05.98 +17 40 03.9 19.8   704 – Lincoln Laboratory ETS, New Mexico MPS 219914
2007 10 09.35068 02 36 05.56 +17 40 01.0 20.1   704 – Lincoln Laboratory ETS, New Mexico MPS 219914
